Время (UTC), дата Ветер
(°,м/с) 
Видим.   Явления Облачность Т
(°С)
Тd
(°С)
f(%) Тe
(°С)
Pmin
(гПа)
dP
(гПа)
Po
(мм)
O2
(г/м3)
Тmin Tmax R s Состояние
почвы
00 01.02.10 150 (ЮВ) 10 км  {туман}  4/0 средняя 
[Ac trans]
-4.2 -5.1 93 -8  1013.5  -0.7  718  294           
03 01.02.10 150 (ЮВ) 10 км    8/0 средняя 
[Ac trans]
-3.8 -5 91 -7  1012.7  -0.7  717  294        37  очень
неравномерный
сухой снег
(сугробы, заносы) 
06 01.02.10 140 (ЮВ) >10 км    9/0 средняя 
[Ac trans]
-2.7 -4.3 89 -6  1012.5  717  292  -5.2         
09 01.02.10 120 (ЮВ) >10 км    8/0 средняя 
[Ac trans]
+0.4 -3.2 77 -2  1011.6  -0.1  717  289           
12 01.02.10 310 (СЗ) >10 км    10/3 1000 м кучево-дожд., средняя 
[Cb calv|Ac und]
+6.7 +2.3 73 +5  1012.5  2.1  719  282           
15 01.02.10 280 (З) >10 км    10/4 1000 м кучево-дожд., средняя 
[Cb calv|Ac und]
+6.2 +1.2 70 +5  1014  1.3  720  283           
18 01.02.10 000 (С) 49  0300 м    4/4 <0100 м кучево-дожд., средняя 
[Cb calv|Ac und]
+1.1   1015.8  1.5  721      +7.2       
21 01.02.10 180 (Ю) >10 км    3/0 средняя 
[Ac trans]
+3.5 +0.6 81 +3  1016.3  0.1  721  287           
00 02.02.10 190 (Ю) >10 км    3/0 средняя 
[Ac trans]
+2.2 -0.3 84 +2  1015.8  -0.7  721  288           
03 02.02.10 150 (ЮВ) >10 км    3/0 средняя 
[Ac trans]
+2.3 +0.4 87 1015.8  721  288        36  очень
неравномерный
сухой снег
(сугробы, заносы) 
06 02.02.10 160 (Ю) >10 км    1/0 верхняя 
[Ci fib]
+4.1 -0.8 70 +2  1015.7  0.3  721  286  +0.8         
09 02.02.10 120 (ЮВ) >10 км    4/0 верхняя 
[Ci]
+5 +0.6 73 +3  1015.2  -0.3  721  285           
12 02.02.10 120 (ЮВ) >10 км    6/0 верхняя 
[Ci]
+6.4 +0.8 67 +5  1013.9  -1  720  283           
15 02.02.10 110 (В) >10 км    6/0 средняя 
[Sc|Ac trans]
+2.4 -0.3 82 1015  0.3  720  288           
18 02.02.10 120 (ЮВ) >10 км    4/0 средняя 
[Sc|Ac trans]
+1.4 -0.3 88 -1  1014.7  -0.5  720  288    +6.6       
21 02.02.10 110 (В) >10 км    3/0 верхняя 
[Ci fib]
+1 -0.4 90 -1  1013.8  -0.9  719  289           
00 03.02.10 110 (В) 0700 м  туман  1/0 верхняя 
[Ci fib]
-1.9 -1.9 100 -5  1013.1  -1.3  718  291           
03 03.02.10 120 (ЮВ) 0200 м  переохл. туман  ?/?  
-2.6 -2.6 100 -6  1011.5  -1.6  717  292        31  очень
неравномерный
сухой снег
(сугробы, заносы) 
06 03.02.10 110 (В) 0200 м  переохл. туман  ?/?  
-2.6 -2.6 100 -6  1011.7  0.2  717  292  -2.7         
09 03.02.10 110 (В) >10 км  {туман}  10/8 150 м средняя 
[St|Ac und]
-1.9 -2.7 94 -5  1010.1  -1.4  716  291           
12 03.02.10 100 (В) >10 км  {туман}  10/10 180 м 
-1.5 -2.3 94 -6  1008.7  -1.3  715  290           
15 03.02.10 100 (В) >10 км    10/8 100 м средняя 
[St|Ac und]
-3 -4 93 -8  1009.2  0.1  715  292           
18 03.02.10 090 (В) 10 км    10/8 100 м средняя 
[St|Ac und]
-3.2 -4.2 93 -7  1009.6  0.3  715  292    -1.3       
21 03.02.10 090 (В) 10 км    10/6 120 м средняя 
[St|Ac und]
-3 -4 93 -7  1009.4  -0.1  715  292           
00 04.02.10 100 (В) 10 км    10/10 120 м 
[St]
-3.6 -4.4 94 -8  1009.8  0.3  716  293           
03 04.02.10 110 (В) 10 км    10/10 270 м 
[St]
-4.1 -5.3 91 -8  1011.9  1.9  717  294        30  очень
неравномерный
сухой снег
(сугробы, заносы) 
06 04.02.10 060 (СВ) 10 км    10/10 60 м 
[St]
-5.2 -6.2 93 -9  1014.1  1.7  718  296  -5.3         
09 04.02.10 070 (В) 10 км    10/10 120 м 
[St]
-5.6 -6.7 92 -9  1016.2  720  297           
12 04.02.10 070 (В) 4000 м  снежные зёрна  10/10 120 м 
[St]
-6 -7.1 92 -10  1017.5  1.2  721  298           
15 04.02.10 080 (В) 2000 м  снежные зёрна  10/10 120 м 
[St]
-6.5 -7.7 91 -12  1019.6  1.8  722  299           
18 04.02.10 100 (В) 2000 м  снег  10/5 150 м средняя 
[Frnb|As op]
-7.1 -8.4 91 -12  1021.1  1.3  723  300    -4  0.3     
21 04.02.10 090 (В) 4000 м  снег  10/10 120 м 
[Frnb|Ns]
-8.7 -9.8 92 -14  1022.7  1.2  724  302           
00 05.02.10 090 (В) 10 км  позёмок{снег}  10/10 210 м 
[Frnb|Ns]
-8.9 -10 92 -15  1023.9  1.1  725  303           
03 05.02.10 080 (В) 10  1100 м  ливневой снег  10/8 210 м кучево-дожд., средняя 
[Cb cap|Ac und]
-10.3 -10.9 95 -18  1025.2  0.9  725  305        29  очень
неравномерный
сухой снег
(сугробы, заносы) 
06 05.02.10 080 (В) 12  1200 м  метель{ливн. осадки}  9/4 180 м кучево-дожд., средняя 
[Cb calv|Ac trans]
-11.7 -13 90 -20  1026.9  1.3  726  307  -11.8    0.6     
09 05.02.10 070 (В) 11  1100 м  метель  10/6 120 м кучево-дожд., средняя 
[Cb cap|Ac und]
-12.8 -14.8 85 -21  1027  -0.1  726  308           
12 05.02.10 080 (В) 10  1500 м  метель  10/6 180 м кучево-дожд., средняя 
[Cb calv|Ac und]
-13.3 -15.3 85 -21  1029  1.7  728  309           
15 05.02.10 070 (В) 2000 м  метель  10/6 150 м кучево-дожд., средняя 
[Cb calv|Ac und]
-14.2 -16.2 85 -22  1030.8  1.5  729  311           
18 05.02.10 080 (В) 10 км  позёмок  10/8 330 м кучево-дожд., средняя 
[Cb calv|Ac und]
-15.6 -17.5 85 -23  1032  0.8  729  313      0.3     
21 05.02.10 090 (В) 10 км  позёмок  10/8 400 м кучево-дожд., средняя 
[Cb calv|Ac und]
-16.2 -18.1 85 -23  1032.6  0.4  730  314           
00 06.02.10 110 (В) >10 км  позёмок  10/8 330 м кучево-дожд., средняя 
[Cb calv|Ac und]
-17.1 -19 86 -24  1032.8  730  315           
03 06.02.10 090 (В) >10 км    3/0 средняя 
[Ac trans]
-16.8 -18.7 85 -23  902.9  729  315           
06 06.02.10 080 (В) >10 км    ясно 
-16.5 -18.4 85 -22  1033.3  730  314  -17.4         
09 06.02.10 070 (В) >10 км    1/0 средняя 
[Ac trans]
-13.9 -17.4 75 -19  1030.3  -1.6  729  311           
12 06.02.10 080 (В) >10 км    5/0 средняя 
[Ac trans]
-13.1 -16.6 75 -19  1030.1  -0.6  728  310           
15 06.02.10 090 (В) >10 км    6/0 средняя 
[Cu med, cong|Ac trans]
-14.9 -19.1 70 -20  1030.4  -0.2  728  312           
18 06.02.10 100 (В) >10 км    4/0 средняя 
[Ac trans]
-16.4 -20.6 70 -22  1030.4  -0.3  728  314    -13.1       
21 06.02.10 130 (ЮВ) >10 км    4/0 средняя 
[Ac trans]
-16.8 -21 70 -22  1030  -0.4  728  314           
00 07.02.10 100 (В) >10 км    3/0 средняя 
[Ac trans]
-14.8 -20.8 60 -21  1029.1  -0.4  727  311           
03 07.02.10 130 (ЮВ) >10 км    ясно 
-16.5 -20.7 70 -22  1029.1  -0.4  727  313        29  очень
неравномерный
сухой снег
(сугробы, заносы) 
06 07.02.10 130 (ЮВ) 10 км    4/4 240 м 
[Frnb]
-11 -13.8 80 -16  1028.3  0.4  727  307  -16.9         
09 07.02.10 130 (ЮВ) >10 км  позёмок  8/8 330 м 
[Sc]
-5.5 -8.5 79 -10  1026.7  -0.3  727  300           
12 07.02.10 100 (В) 10 км  позёмок{снег}  9/9 360 м 
[Sc]
-7 -6.7 100 -12  1026.7  -0.2  727  301           
15 07.02.10 110 (В) 10 км  позёмок  10/5 330 м средняя 
[Frnb|Ac und]
-7.8 -9.6 87 -14  1026.9  -0.1  727  302           
18 07.02.10 110 (В) >10 км  позёмок  10/6 330 м средняя 
[Sc|Ac und]
-7.3 -8.6 90 -12  1025.2  -1.5  726  301    -5.5  0.0     
21 07.02.10 100 (В) 61  >10 км  позёмок  8/8 240 м средняя 
[St|Ac und]
-7.2   1023.9  -0.9  725             
00 08.02.10 120 (ЮВ) >10 км  позёмок{снег}  10/10 120 м 
[St]
-6.4 -7.6 91 -12  1022.6  -1.3  724  300           
03 08.02.10 120 (ЮВ) >10 км  позёмок  10/10 180 м 
[St]
-6.7 -7.5 94 -12  1022  -0.7  724  300        32  очень
неравномерный
сухой снег
(сугробы, заносы) 
06 08.02.10 130 (ЮВ) 10 км  позёмок  10/10 100 м 
[St]
-5.9 -7 92 -10  1020.5  -1.2  723  298  -8.2    0.0     
09 08.02.10 100 (В) >10 км    10/8 210 м средняя 
[St|Ac und]
-4.4 -5.7 91 -8  1018.2  -1.9  721  296           
12 08.02.10 090 (В) >10 км    10/8 180 м средняя 
[St|Ac und]
-4 -5.5 89 -8  1017  -1  721  295           
15 08.02.10 120 (ЮВ) 10 км    10/8 100 м средняя 
[St|Ac und]
-3.9 -5.1 91 -8  1017  721  295           
18 08.02.10 120 (ЮВ) 10 км    10/10 150 м 
[St]
-3.5 -4.6 92 -7  1015.9  -0.9  720  294    -3.8       
21 08.02.10 110 (В) 2000 м  дымка  10/10 100 м 
[St]
-1.9 -2.5 96 -5  1014.5  -1.1  719  292           
00 09.02.10 090 (В) 0200 м  переохл. туман  ?/?  
-2.6 -2.6 100 -5  1013.8  -0.7  719  293           
03 09.02.10 100 (В) 2000 м  дымка{туман}  10/10 60 м 
[St]
-1.4 -2.2 94 -5  1013.3  -0.3  718  291        31  очень
неравномерный
сухой снег
(сугробы, заносы) 
06 09.02.10 070 (В) 0100 м  переохл. туман  ?/?  
-4.2 -4.2 100 -8  1014.9  0.9  719  295  -4.4         
09 09.02.10 090 (В) 4000 м  дымка{туман}  10/8 100 м средняя 
[St|Ac und]
-2.5 -3.1 96 -5  1014  -0.4  719  293           
12 09.02.10 130 (ЮВ) 10 км  {туман}  10/8 150 м средняя 
[St|Ac und]
-1.2 -2.2 93 -4  1014.1  0.3  719  291           
15 09.02.10 110 (В) 4000 м  дымка  10/8 180 м средняя 
[St|Ac und]
-2.6 -3.6 93 -7  1015.7  1.3  720  293           
18 09.02.10 100 (В) 4000 м  дымка  10/8 180 м средняя 
[St|Ac und]
-3.5 -4.3 94 -7  1017.4  1.4  721  295    -1       
21 09.02.10 130 (ЮВ) 10 км    10/8 240 м средняя 
[St|Ac und]
-2.7 -4 91 -6  1018.8  1.4  722  294           
00 10.02.10 130 (ЮВ) 10 км    10/8 180 м средняя 
[St|Ac und]
-2 -2.9 94 -6  1020.1  1.4  723  294           
03 10.02.10 130 (ЮВ) 10 км    10/8 180 м средняя, верхняя 
[St|Ac cuf|Cs]
-4.5 -5.4 93 -8  1022.3  1.6  724  297        31  очень
неравномерный
сухой снег
(сугробы, заносы) 
06 10.02.10 100 (В) 10 км    10/8 180 м средняя 
[St|Ac und]
-4 -4.9 93 -8  1023.5  1.2  725  297  -4.6         
09 10.02.10 120 (ЮВ) >10 км    10/8 150 м средняя 
[St|Ac und]
-2.6 -3.9 91 -7  1023.7  0.6  726  296           
12 10.02.10 110 (В) >10 км    10/8 120 м средняя 
[St|Ac und]
-2.8 -4.1 91 -7  1024  0.1  726  296           
15 10.02.10 100 (В) >10 км    10/10 100 м 
[St]
-4.7 -5.7 93 -9  1026  1.5  727  299           
18 10.02.10 100 (В) 10 км  слаб. снег  10/10 120 м 
[Ns]
-4.6 -5.5 94 -8  1027.7  1.7  728  299    -2.5       
21 10.02.10 110 (В) >10 км  {снег}  10/10 120 м 
[Ns]
-4.7 -5.7 93 -10  1027.2  -0.6  728  299           
00 11.02.10 100 (В) >10 км  {снег}  10/10 120 м 
[Ns]
-5.6 -6.7 92 -10  1027.3  728  300           
03 11.02.10 110 (В) >10 км    10/10 150 м 
[St]
-5.9 -7 92 -10  1027.6  0.2  728  300        31  очень
неравномерный
сухой снег
(сугробы, заносы) 
06 11.02.10 110 (В) 10  10 км  позёмок  10/10 240 м 
-5.8 -6.9 92 -12  1027.8  0.2  728  300  -6    0.0     
09 11.02.10 100 (В) 14  10 км  позёмок  10/8 270 м средняя 
[St|Ac und]
-5.4 -6.4 93 -13  1028.1  0.4  728  300           
12 11.02.10 100 (В) 13{18}  4000 м  метель  10/8 210 м средняя 
[St|Ac und]
-5.5 -6.9 90 -13  1027.3  -0.8  728  300           
15 11.02.10 090 (В) 13  4000 м  метель  10/8 300 м средняя 
[Sc|Ac und]
-5.3 -6.7 90 -12  1027.3  728  300           
18 11.02.10 090 (В) 16  4000 м  метель  10/10 300 м 
[Sc]
-5.8 -7.3 89 -14  1027.7  0.3  728  300           
21 11.02.10 090 (В) 13{19}  4000 м  метель  10/6 500 м средняя 
[Sc|Ac und]
-6.6 -7.8 91 -14  1028.2  0.3  728  301           
00 12.02.10 100 (В) 15-20{20}  4000 м  метель  10/8 500 м средняя 
[Sc|Ac und]
-6.7 -7.9 91 -15  1027.4  -0.8  727  301           
03 12.02.10 090 (В) 15-20{20}  2000 м  снег  10/8 450 м средняя 
[Sc|Ac und]
-6.2 -7.4 91 -14  1026.9  -0.4  727  301        32  очень
неравномерный
сухой снег
(сугробы, заносы) 
06 12.02.10 090 (В) 12{18}  0600 м  сильная метель{снег}  ?/?  
-5.9 -7 92 -13  1028.2  1.4  728  301  -6.9    0.0     
09 12.02.10 100 (В) 6-19{20}  0500 м  сильная метель  ?/?  
-4.4 -5.7 91 -9  1027.6  -0.3  728  299           
12 12.02.10 100 (В) 13{21}  10 км  позёмок  10/8 400 м средняя 
[Sc|Ac und]
-3.6 -5.8 85 -10  1025.8  -1.5  727  297           
15 12.02.10 110 (В) 15-18{19}  0500 м  сильная метель{снег}  ?/?  
-4.1 -5 93 -11  1026.9  728  298           
18 12.02.10 110 (В) 14{18}  0500 м  сильная метель{снег}  ?/?  
-4.6 -5.5 94 -12  1027  728  299    -3.5  0.3     
21 12.02.10 110 (В) 12  0900 м  сильная метель  ?/?  
-4.7 -5.7 93 -11  1027.1  -0.1  728  299           
00 13.02.10 100 (В) 12  1400 м  снег  10/10 270 м 
[Ns]
-4.8 -5.8 93 -11  1026.9  -0.2  727  299           
03 13.02.10 110 (В) >10 км  в посл. час переохл. осадки (гололёд){снег, дождь} [диам. гололёда 2 мм]  10/10 180 м 
[Ns]
-4.7 -5.7 93 -9  1027.2  0.3  728  299        42  очень
неравномерный
сухой снег
(сугробы, заносы) 
06 13.02.10 120 (ЮВ) >10 км  {снег, дождь} [диам. гололёда 2 мм]  10/10 210 м 
[Ns]
-3.4 -4.8 90 -9  1027.3  0.4  728  297  -5    0.7     
09 13.02.10 100 (В) >10 км    10/10 240 м 
[Ns]
-2.1 -3.6 89 -7  1026.2  -0.7  727  296           
12 13.02.10 110 (В) >10 км    10/8 330 м кучево-дожд., средняя 
[Cb calv|Ac und]
-1.2 -3.5 84 -6  1025.2  -0.7  727  294           
15 13.02.10 100 (В) >10 км    10/8 240 м средняя 
[St|Ac und]
-1.8 -3.2 90 -6  1024.7  -0.7  726  294           
18 13.02.10 130 (ЮВ) >10 км    10/8 120 м средняя 
[St|Ac und]
-2.1 -3.3 91 -7  1023  -1.6  725  295    -1       
21 13.02.10 120 (ЮВ) 10  10 км    10/8 120 м средняя 
[St|Ac und]
-2.6 -3.6 93 -8  1021  -2  724  295           
00 14.02.10 120 (ЮВ) 10  4000 м  дымка  10/10 60 м 
[St]
-3.2 -3.9 95 -9  1018.9  -2.1  722  295           
03 14.02.10 130 (ЮВ) 2000 м  дымка  10/10 100 м 
[St]
-3.3 -4 95 -8  1017.2  -1.7  721  294        41  очень
неравномерный
сухой снег
(сугробы, заносы) 
06 14.02.10 190 (Ю) >10 км  {туман}  10/6 400 м средняя 
[Sc|Ac und]
-2.2 -3.1 93 -6  1019.9  2.8  723  294  -3.4         
09 14.02.10 060 (СВ) >10 км  слаб. ливневой дождь  10/6 420 м кучево-дожд., средняя 
[Cb cap|Ac und]
+0.3 -1.1 90 1020.1  0.7  723  291           
12 14.02.10 070 (В) >10 км  {ливн. осадки}  5/0 средняя 
[Ac trans]
+2.2 -0.3 84 +2  1020.2  0.5  724  289           
15 14.02.10 130 (ЮВ) >10 км    3/0 средняя 
[Ac trans]
+0.7 -0.7 90 -2  1021.1  0.5  724  291           
18 14.02.10 190 (Ю) >10 км    3/0 средняя 
[Ac trans]
+2.2 -0.3 84 1021.4  0.7  725  290    +3.8  0.4     
21 14.02.10 160 (Ю) >10 км    3/0 средняя 
[Ac trans]
+3.1 +0.5 83 +1    -1.5  724  288           
00 15.02.10 120 (ЮВ) >10 км    3/0 средняя 
[Ac trans]
+1 -1.3 84 -1  1018.4  -1.7  722  290           
03 15.02.10 130 (ЮВ) >10 км    6/0 средняя 
[Ac trans]
+2.6 -0.1 82 +1  1015.3  -2.6  720  287  +0.6      39  очень
неравномерный
сухой снег
(сугробы, заносы) 
06 15.02.10 090 (В) >10 км    10/4 1000 м средняя 
[Sc|Ac und]
+2.4 -0 84 1012.9  -2.3  719  287  +0.6         
09 15.02.10 120 (ЮВ) >10 км    10/5 1000 м средняя 
[Sc|Ac und]
+4.2 -0 74 +2  1010.2  -2.2  717  284           
12 15.02.10 110 (В) >10 км    10/3 1000 м кучево-дожд., средняя 
[Cb calv|Ac und]
+4.9 +0.5 73 +2  1006.1  -3.7  714  283           
15 15.02.10 130 (ЮВ) >10 км    10/3 1000 м кучево-дожд., средняя 
[Cb calv|Ac und]
+5 +0 70 +3  1004.1  -1.9  713  282           
18 15.02.10 160 (Ю) >10 км    10/3 1000 м кучево-дожд., средняя 
[Cb calv|Ac und]
+4.5 +0 73 +4  1002.8  -1.4  712  282    +6.1       
21 15.02.10 190 (Ю) >10 км    10/4 1000 м средняя 
[Sc|Ac und]
+5.7 +0.5 69 +5  1000.8  -1.6  710  280           
00 16.02.10 290 (З) 10  >10 км  слаб. ливневой дождь  10/6 1000 м кучево-дожд., средняя 
[Cb cap|Ac und]
+6.5 +4.7 88 +3  1003.3  2.6  712  280           
03 16.02.10 240 (ЮЗ) >10 км  {ливн. осадки}  10/6 360 м кучево-дожд., средняя 
[Cb cap|Ac und]
+7.4 +3.2 75 +5  1001.2  -1.9  711  278        33  мокрый или
старый снег
50-90% 
06 16.02.10 270 (З) 12  >10 км  {ливн. осадки}  3/3 600 м кучево-дожд. 
[Cb calv]
+5.2 +1.1 75 +1  1003  1.3  712  281  +4.2       
09 16.02.10 260 (З) 18  >10 км    3/3 600 м 
[Sc diur, vesp]
+5.9 -2.4 55 +1  1003.5  0.6  712  281           
12 16.02.10 270 (З) 20-25  >10 км  слаб. ливневой дождь  8/8 900 м кучево-дожд. 
[Cb cap]
+5.5 +0 68 1005.3  1.6  714  282           
15 16.02.10 270 (З) 15-18{24}  >10 км  {ливн. осадки}  8/4 600 м кучево-дожд., средняя 
[Cb calv|Ac trans]
+2.9 -1.3 74 -2  1009.2  3.2  716  286           
18 16.02.10 270 (З) 12  >10 км  {ливн. осадки}  8/5 300 м средняя 
[Sc|Ac trans]
+1.8 -0.4 85 -3  1011.8  2.3  718  287    +7.5  0.0     
21 16.02.10 290 (З) >10 км  {ливн. осадки}  10/6 660 м кучево-дожд., средняя 
[Cb calv|Ac und]
+0.1 -2.6 82 -4  1015.2  2.8  720  290           
00 17.02.10 290 (З) >10 км  {ливн. осадки}  10/6 500 м кучево-дожд., средняя 
[Cb calv|Ac und]
-0.8 -3.3 83 -5  1016.5  721  292           
03 17.02.10 300 (СЗ) >10 км    10/5 300 м кучево-дожд., средняя 
[Cb calv|Ac und]
-1 -3.6 82 -5  1016.6  0.1  720  291        17  мокрый или
старый снег
50-90% 
06 17.02.10 300 (СЗ) >10 км    10/4 300 м кучево-дожд., средняя 
[Cb calv|Ac und]
-0.2 -4.9 71 -4  1017.4  0.9  721  291  -1.1    0.0     
09 17.02.10 310 (СЗ) >10 км    8/3 300 м средняя 
[Sc|Ac trans]
+2.6 -3.7 63 1016.8  721  288           
12 17.02.10 290 (З) >10 км    10/6 500 м средняя 
[Sc|Ac und]
+2.1 -2.6 71 1016.5  -0.4  721  289           
15 17.02.10 230 (ЮЗ) 10 км    10/8 750 м средняя 
[Sc|Ac und]
+1.6 -2.2 76 +2  1016.7  0.1  721  289           
18 17.02.10 190 (Ю) >10 км    10/6 800 м средняя 
[Sc|Ac und]
+1.4 -1.1 83 1016.8  0.1  721  289    +3.2       
21 17.02.10 010 (С) 10 км    10/8 450 м кучево-дожд., средняя 
[Cb calv|Ac und]
+0.5 -1.2 88 +1  1016.4  -0.6  721  290           
00 18.02.10 080 (В) 1200 м  ливневой снег  10/8 100 м кучево-дожд., средняя 
[Cb cap|Ac und]
-1.6 -2.4 94 -4  1016.9  0.1  721  292           
03 18.02.10 060 (СВ) 1900 м  ливневой снег  10/8 120 м кучево-дожд., средняя 
[Cb cap|Ac und]
-2.1 -3 94 -4  1017  721  293        20  неравномерный
мокрый или
старый снег
100% 
06 18.02.10 050 (СВ) 1200 м  ливневой снег  10/8 100 м кучево-дожд., средняя 
[Cb cap|Ac und]
-1.8 -2.6 94 -4  1017.1  0.1  721  293  -2.1       
09 18.02.10 090 (В) 0600 м  ливневой снег  ?/? 50 
-0.7 -1.4 95 -4  1016.5  -0.3  721  291           
12 18.02.10 090 (В) 3000 м  дымка{ливн. осадки}  10/8 100 м кучево-дожд., средняя 
[Cb calv|Ac und]
-0.5 -1.2 95 -4  1015.7  -0.7  720  291           
15 18.02.10 130 (ЮВ) 4000 м  дымка  10/10 120 м 
[St]
-0.1 -0.9 94 -3  1014.5  -1  719  290           
18 18.02.10 140 (ЮВ) 10 км  {ливн. осадки}  10/8 120 м кучево-дожд., средняя 
[Cb calv|Ac und]
-0.5 -1.1 96 -4  1014  -0.7  719  290    +0.1     
21 18.02.10 140 (ЮВ) 4000 м  слаб. ливневой дождь [диам. гололёда 1 мм]  10/8 100 м кучево-дожд., средняя 
[Cb cap|Ac und]
-0.4 -1 96 -4  1012.3  -1.5  718  290           
00 19.02.10 120 (ЮВ) 4000 м  {ливн. осадки} [диам. гололёда 2 мм]  10/6 360 м кучево-дожд., средняя 
[Cb calv|Ac und]
-0.2 -1.1 94 -2  1011.5  -0.7  717  289           
03 19.02.10 140 (ЮВ) 10 км  [диам. гололёда 1 мм]  10/6 600 м кучево-дожд., средняя 
[Cb calv|Ac und]
+0.2 -0.4 96 -1  1010.8  -0.6  717  289        20  неравномерный
мокрый или
старый снег
100% 
06 19.02.10 180 (Ю) >10 км  слаб. ливневой дождь  10/6 800 м кучево-дожд., средняя 
[Cb cap|Ac und]
+1.5 +0.4 92 +1  1011.2  0.6  717  287  -0.6       
09 19.02.10 160 (Ю) 0700 м  слаб. ливневой дождь  10/6 600 м кучево-дожд., средняя 
[Cb cap|Ac und]
+3 +3 100 +4  1010.9  0.1  717  285           
12 19.02.10 120 (ЮВ) 0400 м  слаб. ливневой дождь{туман}  10/6 300 м кучево-дожд., средняя 
[Cb cap|Ac und]
+2.6 +2.6 100 +3  1011.3  0.3  718  286           
15 19.02.10 130 (ЮВ) 0300 м  туман{ливн. осадки}  ?/?  
+1.7 +1.7 100 +1  1012.7  1.1  718  287           
18 19.02.10 150 (ЮВ) 0300 м  туман{ливн. осадки}  ?/?  
+2.5 +2.5 100 1014.6  1.9  720  287    +3.6     
00 20.02.10 200 (Ю) >10 км  в посл. час ливневой дождь{туман}  10/3 600 м кучево-дожд., средняя 
[Cb calv|Ac trans]
+3.2 +2.2 93 +3  1012.9  -0.2  719  286           
03 20.02.10 240 (ЮЗ) >10 км  {ливн. осадки}  10/6 500 м кучево-дожд., средняя 
[Cb calv|Ac und]
+6.3 +4.9 91 +7  1013.3  1.1  716  281        16  мокрый или
старый снег
50-90% 
06 20.02.10 150 (ЮВ) >10 км  {ливн. осадки}  4/1 50 м средняя 
[St|Ac trans]
+8.1 +6.5 90 +8  1013.5  0.4  720  281  +1.1       
09 20.02.10 120 (ЮВ) >10 км    3/3 300 м 
[Sc]
+12.1 +7.6 74 +12  1011.6  -1.1  719  276           
12 20.02.10 110 (В) >10 км    3/1 600 м верхняя 
[Sc|Ci fib]
+13.3 +7.6 68 +13  1008.6  -2.5  717  274           
15 20.02.10 110 (В) >10 км    8/0 средняя, верхняя 
[Ac trans|Ci]
+8.9 +3.6 69 +7  1007.7  -1.7  716  279           
18 20.02.10 110 (В) >10 км    8/0 средняя, верхняя 
[Ac trans|Ci fib]
+6.3 +1.3 70 +4  1006.8  -1.4  715  281    +13.6       
21 20.02.10 190 (Ю) >10 км  слаб. дождь  10/5 300 м средняя, верхняя 
[Sc|Ac trans|Ci fib]
+7.4 +2.7 72 +6  1006.5  -0.1  715  280           
00 21.02.10 160 (Ю) >10 км  {дождь}  10/5 600 м средняя 
[Sc|Ac und]
+8.1 +2.9 70 +7  1003.2  -2.9  713  278           
03 21.02.10 180 (Ю) >10 км  в посл. час дождь  10/5 600 м средняя 
[Sc|Ac und]
+10.6 +4.1 64 +10  1001.8  -0.9  712  275        мокрый или
старый снег
10-40% 
06 21.02.10 210 (ЮЗ) >10 км  слаб. ливневой дождь  10/5 800 м кучево-дожд., средняя 
[Cb cap|Ac und]
+11.3 +3 57 +11    -0.1  712  275  +6.1    0.8     
09 21.02.10 210 (ЮЗ) >10 км  {ливн. осадки}  10/5 600 м кучево-дожд., средняя 
[Cb calv|Ac und]
+13.5 +7.6 67 +13  999.9  -1.2  711  272           
12 21.02.10 270 (З) >10 км  в посл. час ливневой дождь  10/8 900 м кучево-дожд., средняя 
[Cb calv|Ac und]
+13.5 +8.2 70 +13  998.1  -1.7  710  271           
15 21.02.10 050 (СВ) >10 км  слаб. ливневой дождь  10/8 900 м кучево-дожд., средняя 
[Cb cap|Ac und]
+11.9 +8.6 80 +13  997.8  -0.6  709  272           
18 21.02.10 130 (ЮВ) >10 км  слаб. ливневой дождь  10/8 900 м кучево-дожд., средняя 
[Cb cap|Ac und]
+9 +7.7 92 +10  997.2  -1  708  275    +13.6  0.8     
21 21.02.10 310 (СЗ) 10 км  слаб. ливневой дождь  10/8 180 м кучево-дожд., средняя 
[Cb cap|Ac und]
+8.1 +7.3 95 +8  996.9  -0.4  708  276           
00 22.02.10 000 (С) 78  0200 м  слаб. ливневой дождь{туман}  1/0 
+7.8   996.6  -0.4  708             
03 22.02.10 280 (З) 10 км  слаб. ливневой дождь{туман}  10/8 600 м кучево-дожд., средняя 
[Cb cap|Ac und]
+8.4 +7.3 93 +7  997.4  0.8  708  276           
06 22.02.10 280 (З) 10  10 км    10/8 300 м кучево-дожд., средняя 
[Cb cap|Ac und]
+7 +5.6 91 +4  1000.1  2.3  710  278  +6.8       
09 22.02.10 280 (З) 12  4000 м  дымка{ливн. осадки}  10/8 120 м кучево-дожд., средняя 
[Cb calv|Ac und]
+3.3 +2 91 -1  1003.2  2.2  712  283           
12 22.02.10 290 (З) >10 км  {ливн. осадки}  10/8 300 м кучево-дожд., средняя 
[Cb calv|Ac und]
+2.3 -0.2 83 -2  1006.1  2.6  714  285           
15 22.02.10 300 (СЗ) 12  >10 км    9/6 330 м кучево-дожд., средняя 
[Cb calv|Ac trans]
+1.4 -2.1 78 -4  1009.4  2.9  716  287           
18 22.02.10 290 (З) 16  >10 км    10/6 450 м кучево-дожд., средняя 
[Cb calv|Ac und]
+0.1 -2.9 80 -6  1013.4  3.5  719  290    +8.5  0.6     
21 22.02.10 270 (З) 15-18{20}  >10 км    10/6 540 м кучево-дожд., средняя 
[Cb calv|Ac und]
-0.5 -3.9 78 -7  1016.4  2.7  721  291           
00 23.02.10 270 (З) 10{18}  >10 км    6/5 400 м кучево-дожд., средняя 
[Cb calv|Ac trans]
-1.7 -4.1 84 -7  1017.5  0.9  721  293           
03 23.02.10 280 (З) 12  >10 км    6/3 360 м кучево-дожд., средняя 
[Cb calv|Ac trans]
-2.2 -4.4 85 -8  1018.4  0.7  722  294           
06 23.02.10 280 (З) 10 км    4/4 300 м 
[Sc diur, vesp]
-2 -4.8 81 -7  1020.6  2.1  723  294  -2.9         
09 23.02.10 290 (З) >10 км    3/3 600 м 
[Sc]
+1.8 -6.3 55 -1  1019.9  723  290           
12 23.02.10 300 (СЗ) >10 км    3/1 1000 м верхняя 
[Sc diur, vesp|Ci fib]
+3.4 -6.4 49 +1  1018.2  -1.3  722  288           
15 23.02.10 290 (З) >10 км    3/3 1000 м 
[Sc diur, vesp]
+1 -6.4 58 -2  1009.8  716  287    +3.6       
18 23.02.10 320 (СЗ) >10 км    4/0 средняя 
[Ac trans]
-0.5 -3.8 78 -3  1018.3  2.6  722  292    +3.6       
21 23.02.10 310 (СЗ) >10 км    4/0 средняя 
[Ac trans]
-1.8 -4.6 81 -5  1018.3  722  293           
00 24.02.10 290 (З) >10 км    4/0 средняя 
[Ac trans]
-2.7 -5 84 -4  1018  -0.8  721  294           
03 24.02.10 280 (З) >10 км    3/0 средняя 
[Ac trans]
-4 -5.2 91 -5  1018  -0.2  721  295           
06 24.02.10 040 (СВ) >10 км    3/0 средняя 
[Ac trans]
+0.2 -0.4 96 +1  1017.5  0.4  722  290  -5.6         
09 24.02.10 340 (С) >10 км    8/0 средняя, верхняя 
[Ac trans|Ci fib]
+1.9 -4.4 63 +1  1016.1  -1  721  289           
12 24.02.10 030 (СВ) >10 км    5/0 верхняя 
[Ci fib]
+4 -4.7 53 +3  1014.7  0.1  720  286           
15 24.02.10 070 (В) >10 км    3/0 средняя 
[Ac trans]
+0.2 -6.5 61 -2  1015.1  -0.5  720  290           
18 24.02.10 100 (В) >10 км    3/0 верхняя 
[Ci sp]
-3.7 -5.5 87 -6  1016.3  0.4  720  295    +4.2       
21 24.02.10 080 (В) >10 км    3/0 верхняя 
[Ci fib]
-4.9 -6.2 91 -7  1016.1  -0.4  720  296           
00 25.02.10 110 (В) 4000 м  дымка  ясно 
-5.1 -5.8 95 -6  1015.7  -0.3  719  296           
03 25.02.10 120 (ЮВ) 0400 м  переохл. туман  ясно 
-5.7 -6.1 97 -8  1015.2  -0.7  719  296           
06 25.02.10 130 (ЮВ) >10 км  {туман}  6/0 верхняя 
[Ci fib]
-1.3 -3.6 84 -3  1014.5  0.2  719  291  -6.2         
09 25.02.10 070 (В) >10 км    6/0 верхняя 
[Ci fib]
+2.8 -3.8 62 +1  1013.7  0.2  719  287           
12 25.02.10 070 (В) >10 км    4/0 верхняя 
[Ci fib]
+4.2 -4.4 54 +1  1013.1  -0.4  719  286           
15 25.02.10 070 (В) >10 км    3/0 верхняя 
[Ci fib]
+0.7 -5.8 62 -3  1014.3  0.5  719  290           
18 25.02.10 070 (В) >10 км    8/5 180 м средняя 
[St|Ac trans]
-3.5 -4.3 94 -8  1015.4  0.1  719  294    +4.7       
21 25.02.10 110 (В) 2000 м  дымка  10/10 60 м 
[St]
-4 -4.9 93 -8  1015.4  -0.1  719  295           
00 26.02.10 100 (В) 10 км    10/10 180 м 
[St]
-4.5 -5.8 91 -8  1015.9  0.3  720  295           
03 26.02.10 100 (В) 10 км    10/10 240 м 
[St]
-5 -6 93 -9  1015.8  -0.1  720  296           
06 26.02.10 100 (В) >10 км    10/10 210 м 
[St]
-3.5 -5.3 87 -7  1016.2  0.7  720  294  -6         
09 26.02.10 100 (В) >10 км    9/4 450 м средняя 
[Sc|Ac trans]
+0.8 -5.3 64 -3  1015  -0.4  720  290           
12 26.02.10 110 (В) >10 км    8/4 480 м средняя 
[Sc|Ac trans]
+2 -4.5 62 -1  1014.3  -0.3  720  288           
15 26.02.10 130 (ЮВ) >10 км    9/6 300 м средняя 
[Sc|Ac trans]
-2.2 -4.4 85 -7  1015.1  -0.2  719  293           
18 26.02.10 120 (ЮВ) >10 км    10/10 180 м 
[St]
-2.8 -4.4 89 -6  1015.8  0.6  720  293    +2.2       
21 26.02.10 120 (ЮВ) >10 км    10/10 150 м 
[St]
-2.7 -4 91 -7  1015  -0.7  719  293           
00 27.02.10 140 (ЮВ) >10 км    10/10 210 м 
[St]
-3.1 -4.5 90 -8  1014.3  -0.7  719  293           
03 27.02.10 120 (ЮВ) >10 км    10/10 180 м 
[St]
-3.4 -4.5 92 -8  1014.7  0.2  719  294           
06 27.02.10 130 (ЮВ) >10 км    10/8 150 м средняя 
[St|Ac und]
-3.1 -4.5 90 -8  1014.8  0.2  719  294  -3.6         
09 27.02.10 130 (ЮВ) >10 км    6/6 400 м 
[Sc]
+1.1 -3.8 70 -3  1012.7  -1.2  718  289           
12 27.02.10 120 (ЮВ) >10 км    6/3 600 м верхняя 
[Sc|Ci fib]
+1.5 -3 72 -2  1012.5  -0.1  718  288           
15 27.02.10 120 (ЮВ) >10 км    10/5 300 м средняя 
[Sc|Ac und]
-1 -3.5 83 -5  1012.8  -0.1  718  291           
18 27.02.10 120 (ЮВ) >10 км    10/6 240 м средняя 
[St|Ac und]
-1.3 -3 88 -5  1013.4  0.4  718  291    +2.7       
21 27.02.10 120 (ЮВ) >10 км    10/10 150 м 
[St]
-0.8 -1.8 93 -3  1013  -0.3  718  290           
00 28.02.10 110 (В) >10 км    10/10 120 м 
[St]
-0.8 -1.8 93 -4  1012.6  -0.3  718  290           
03 28.02.10 100 (В) >10 км    10/8 180 м средняя 
[St|Ac und]
-1.7 -2.5 94 -5  1013.2  0.4  718  291           
06 28.02.10 100 (В) 10 км    10/10 60 м 
[St]
-1.1 -1.8 95 -5  1014.2  719  291  -1.8         
09 28.02.10 100 (В) >10 км    10/3 200 м средняя 
[St|Ac und]
+2.3 -1.7 75 -1  1014.3  0.8  720  288           
12 28.02.10 090 (В) >10 км    10/4 300 м верхняя 
[Sc|Cs]
+4.1 -1.1 69 +1  1013.9  720  286           
15 28.02.10 100 (В) >10 км    10/10 150 м 
[St]
+0.5 -0.9 90 -3  1015.7  720  290           
18 28.02.10 100 (В) 0300 м  туман  ?/?  
-0.8 -0.8 100 -4  1017.7  722  292    +4.9       
21 28.02.10 120 (ЮВ) 10 км  в посл. час туман [диам. гололёда 1 мм]  10/10 100 м 
[St]
-0.4 -1 96 -4  1017.4  -0.3  721  291           
00 01.03.10 130 (ЮВ) 10 км  {туман}  10/10 120 м 
[St]
-0.4 -1.3 94 -4  1017.6  0.2  722  291           
03 01.03.10 130 (ЮВ) 2000 м  дымка  10/10 60 м 
[St]
-0.7 -1.4 95 -4  1017.9  0.3  722  292           
06 01.03.10 120 (ЮВ) 4000 м  дымка  10/10 120 м 
[St]
+0.7 -0.4 92 -3  1019.3  1.6  723  291  -1         
09 01.03.10 120 (ЮВ) >10 км    1/1 300 м 
[Sc]
+7.3 +0.9 64 +6  1017.8  -0.2  723  283           
12 01.03.10 100 (В) >10 км    ясно 
+9.9 +0.9 54 +8  1016.9  -0.4  722  281           
15 01.03.10 140 (ЮВ) >10 км    3/0 верхняя 
[Ci fib]
+4.6 +0.4 74 +2  1018  722  286           
18 01.03.10 130 (ЮВ) >10 км    3/0 средняя 
[Ac trans]
-0.2 -1.1 94 -3  1019.1  0.2  723  291    +9.9       
21 01.03.10 170 (Ю) 0400 м  туман  ?/?  
-0.5 -0.5 100 -3  1019  -0.2  722  292           
00 02.03.10 130 (ЮВ) 0200 м  туман [диам. гололёда 2 мм]  ?/?  
-0.7 -0.7 100 -3  1017.7  -1.3  722  291           
03 02.03.10 170 (Ю) 0200 м  туман [диам. гололёда 4 мм]  3/0 средняя 
[Ac trans]
-1 -1 100 -4  1017.3  -0.4  721  292           
06 02.03.10 120 (ЮВ) 2000 м  дымка{туман} [диам. гололёда 4 мм]  8/0 средняя 
[Ac trans]
+2.3 +1.3 93 +3  1016.7  0.1  721  288  -2.6         
09 02.03.10 040 (СВ) 10 км    8/0 средняя, верхняя 
[Ac trans|Ci fib]
+8.4 +2.5 66 +8  1014.6  -0.9  721  281           
12 02.03.10 100 (В) >10 км    10/0 средняя, верхняя 
[Ac und|Ci fib]
+10.1 +2.3 58 +9  1012.4  -1.7  719  279           
15 02.03.10 060 (СВ) >10 км    8/0 средняя, верхняя 
[Ac trans|Ci fib]
+5.8 +1.8 75 +5  1012.9  -0.3  719  283           
18 02.03.10 120 (ЮВ) >10 км    10/0 средняя 
[Ac trans]
+1.5 -0.2 88 1013.4  -0.4  719  288    +10.4       
21 02.03.10 120 (ЮВ) 10 км    10/10 100 м 
[St]
+1.2 +0.4 94 1012  -1.3  718  288           
00 03.03.10 100 (В) >10 км    10/10 120 м 
[St]
+2 +0.9 92 +1  1010.6  -1.3  717  287           
03 03.03.10 120 (ЮВ) >10 км    10/10 120 м 
[St]
+2.2 +1.2 93 1009.9  -0.5  716  286           
06 03.03.10 090 (В) 1100 м  дымка{туман}  10/10 60 м 
[St]
+1.5 +0.7 94 -2  1010.7  0.5  717  287  +1.1         
09 03.03.10 070 (В) >10 км    10/8 180 м средняя 
[St|Ac und]
+3.2 +1.1 86 1010.4  0.1  717  285           
12 03.03.10 080 (В) 4000 м  слаб. морось  10/10 120 м 
[St]
+3.2 +1.9 91 +1  1010.2  -0.2  717  285           
15 03.03.10 060 (СВ) 10 км  в посл. час дождь{морось}  10/10 210 м 
[Ns]
+2.5 +1.5 93 1011.1  0.7  717  286           
18 03.03.10 090 (В) 2500 м  дождь{морось}  10/10 100 м 
[Ns]
+1.8 +1 95 -1  1011.8  0.6  718  287    +4  0.3     
21 03.03.10 230 (ЮЗ) >10 км  {дождь}  10/8 150 м средняя 
[St|Ac und]
+1.4 +0.6 94 +1  1012.2  0.3  718  288           
00 04.03.10 260 (З) 4000 м  слаб. ливневой снег{дождь}  10/8 330 м кучево-дожд., средняя 
[Cb cap|Ac und]
+0.6 -0.2 94 -1  1013  0.5  718  289           
03 04.03.10 260 (З) 10 км  слаб. ливневой снег  10/8 300 м кучево-дожд., средняя 
[Cb cap|Ac und]
-0.1 -1 94 -3  1014.4  719  290           
06 04.03.10 270 (З) 2000 м  слаб. ливневой снег  10/5 180 м кучево-дожд., средняя 
[Cb cap|Ac und]
-0.1 -0.7 96 -4  1016.7  2.4  721  291  -0.2       
Время (UTC), дата Ветер
(°,м/с) 
Видим.   Явления Облачность Т
(°С)
Тd
(°С)
f(%) Тe
(°С)
Pmin
(гПа)
dP
(гПа)
Po
(мм)
O2
(г/м3)
Тmin Tmax R s Состояние
почвы